Date String (YYYY-MM-DD hh:mm:ss) UTC,Instrument flags,Ambient pressure (hPa),Sample flow (lpm),Bypass flow (lpm),Sample temperature (°C),Ambient temperature (°C),ASC tube jacket temperature (°C),LED temperature (°C),Box temperature (°C),Sample RH (%),Span deviation,Mass concentration (μg/m³),Mass concentration (μg/m³),Mass concentration (μg/m³)
DateTimeUTC,F1_M11,P_M11,Q1_M11,Q2_M11,T1_M11,T2_M11,T3_M11,T4_M11,T5_M11,U1_M11,ZSPAN_M11,X0_M11,X2_M11,X1_M11
2022-08-19 20:00:00,,0828.6,5.00,0.00,29.9,28.4,00.0,38.7,31.8,25.7,0000.0,0019.19,0007.52,0006.26
2022-08-19 20:01:00,,0828.6,5.00,0.00,29.9,28.6,00.0,38.7,31.9,25.6,0000.0,0019.05,0007.57,0006.27
2022-08-19 20:02:00,,0828.9,5.00,0.00,30.0,28.7,00.0,38.7,31.9,25.3,0000.0,0019.05,0007.53,0006.27
2022-08-19 20:03:00,,0828.8,5.00,0.00,30.0,28.9,00.0,38.8,32.0,25.0,0000.0,0019.41,0007.53,0006.29
2022-08-19 20:04:00,,0828.8,5.01,0.00,30.1,29.0,00.0,38.8,32.1,24.9,0000.0,0019.56,0007.57,0006.31
2022-08-19 20:05:00,,0828.8,5.00,0.00,30.1,29.1,00.0,38.8,32.1,24.7,0000.0,0019.20,0007.62,0006.32
2022-08-19 20:06:00,,0828.9,5.00,0.00,30.1,29.0,00.0,38.8,32.0,24.3,0000.0,0018.97,0007.67,0006.33
2022-08-19 20:07:00,,0828.6,4.99,0.00,30.1,28.3,00.0,38.8,31.8,24.1,0000.0,0019.39,0007.67,0006.32
2022-08-19 20:08:00,,0828.5,5.01,0.00,30.0,27.8,00.0,38.7,31.7,24.3,0000.0,0019.78,0007.65,0006.32
2022-08-19 20:09:00,,0828.5,4.99,0.00,30.0,27.8,00.0,38.7,31.7,24.5,0000.0,0019.89,0007.64,0006.33
2022-08-19 20:10:00,,0828.5,5.01,0.00,29.9,27.9,00.0,38.7,31.6,24.6,0000.0,0019.83,0007.63,0006.33
2022-08-19 20:11:00,,0828.5,4.99,0.00,29.9,28.0,00.0,38.7,31.7,24.6,0000.0,0019.62,0007.67,0006.33
2022-08-19 20:12:00,,0828.4,5.00,0.00,29.9,28.2,00.0,38.7,31.7,24.2,0000.0,0019.17,0007.64,0006.32
2022-08-19 20:13:00,,0828.4,4.99,0.00,29.9,28.4,00.0,38.7,31.8,23.9,0000.0,0019.21,0007.63,0006.32
2022-08-19 20:14:00,,0828.5,5.01,0.00,29.9,28.6,00.0,38.7,31.9,24.0,0000.0,0019.57,0007.63,0006.31
2022-08-19 20:15:00,,0828.4,5.00,0.00,30.0,28.7,00.0,38.7,31.9,23.8,0000.0,0018.06,0007.60,0006.29
2022-08-19 20:16:00,,0828.5,5.02,0.00,30.0,28.9,00.0,38.8,32.0,23.8,0000.0,0017.62,0007.57,0006.27
2022-08-19 20:17:00,,0828.4,5.00,0.00,30.1,29.0,00.0,38.8,32.0,23.5,0000.0,0017.53,0007.53,0006.24
2022-08-19 20:18:00,,0828.5,4.99,0.00,30.1,29.2,00.0,38.8,32.1,23.4,0000.0,0016.88,0007.53,0006.23
2022-08-19 20:19:00,,0828.5,5.01,0.00,30.1,28.9,00.0,38.8,32.0,23.3,0000.0,0016.99,0007.49,0006.22
2022-08-19 20:20:00,,0828.5,4.99,0.00,30.1,28.2,00.0,38.7,31.9,24.0,0000.0,0017.11,0007.51,0006.21
2022-08-19 20:21:00,,0828.5,5.01,0.00,30.0,27.8,00.0,38.7,31.7,24.0,0000.0,0017.47,0007.49,0006.20
2022-08-19 20:22:00,,0828.5,4.99,0.00,30.0,27.8,00.0,38.7,31.7,23.9,0000.0,0017.48,0007.44,0006.19
2022-08-19 20:23:00,,0828.5,5.00,0.00,29.9,27.9,00.0,38.7,31.6,24.0,0000.0,0017.26,0007.47,0006.18
2022-08-19 20:24:00,,0828.5,4.99,0.00,29.9,28.1,00.0,38.7,31.7,24.0,0000.0,0016.84,0007.55,0006.18
2022-08-19 20:25:00,,0828.5,5.01,0.00,29.9,28.3,00.0,38.7,31.8,24.0,0000.0,0016.02,0007.57,0006.19
2022-08-19 20:26:00,,0828.4,4.98,0.00,29.9,28.4,00.0,38.7,31.8,24.6,0000.0,0016.15,0007.59,0006.19
2022-08-19 20:27:00,,0828.5,5.00,0.00,30.0,28.6,00.0,38.7,31.9,23.9,0000.0,0016.13,0007.60,0006.20
2022-08-19 20:28:00,,0828.5,5.00,0.00,30.0,28.8,00.0,38.7,32.0,24.3,0000.0,0016.42,0007.58,0006.20
2022-08-19 20:29:00,,0828.5,4.99,0.00,30.0,28.9,00.0,38.8,32.0,23.9,0000.0,0016.56,0007.60,0006.21
2022-08-19 20:30:00,,0828.5,5.00,0.00,30.1,29.1,00.0,38.8,32.1,23.9,0000.0,0016.56,0007.61,0006.20
2022-08-19 20:31:00,,0828.5,5.00,0.00,30.1,28.9,00.0,38.8,32.0,23.5,0000.0,0017.05,0007.59,0006.19
2022-08-19 20:32:00,,0828.4,4.99,0.00,30.1,28.2,00.0,38.8,31.8,23.6,0000.0,0016.37,0007.57,0006.18
2022-08-19 20:33:00,,0828.4,5.00,0.00,30.0,27.7,00.0,38.7,31.7,24.0,0000.0,0016.56,0007.61,0006.17
2022-08-19 20:34:00,,0828.4,5.00,0.00,29.9,27.7,00.0,38.7,31.6,23.6,0000.0,0017.31,0007.61,0006.19
2022-08-19 20:35:00,,0828.4,5.01,0.00,29.9,27.8,00.0,38.7,31.5,24.0,0000.0,0018.85,0007.57,0006.19
2022-08-19 20:36:00,,0828.4,4.99,0.00,29.9,28.0,00.0,38.7,31.6,24.2,0000.0,0019.34,0007.52,0006.19
2022-08-19 20:37:00,,0828.4,5.01,0.00,29.9,28.1,00.0,38.7,31.7,25.1,0000.0,0019.07,0007.48,0006.17
2022-08-19 20:38:00,,0828.4,4.99,0.00,29.9,28.3,00.0,38.7,31.8,25.2,0000.0,0019.29,0007.49,0006.17
2022-08-19 20:39:00,,0828.4,5.00,0.00,29.9,28.5,00.0,38.7,31.8,24.8,0000.0,0018.90,0007.52,0006.18
2022-08-19 20:40:00,,0828.4,5.00,0.00,30.0,28.7,00.0,38.7,31.9,24.6,0000.0,0018.91,0007.50,0006.19
2022-08-19 20:41:00,,0828.4,5.01,0.00,30.0,28.9,00.0,38.7,32.0,24.4,0000.0,0019.07,0007.54,0006.20
2022-08-19 20:42:00,,0828.3,5.00,0.00,30.0,29.0,00.0,38.8,32.0,24.7,0000.0,0018.86,0007.60,0006.23
2022-08-19 20:43:00,,0828.3,5.00,0.00,30.1,29.1,00.0,38.8,32.1,24.3,0000.0,0018.78,0007.67,0006.26
2022-08-19 20:44:00,,0828.4,4.99,0.00,30.1,28.9,00.0,38.8,32.0,23.9,0000.0,0018.44,0007.66,0006.28
2022-08-19 20:45:00,,0828.3,5.01,0.00,30.1,28.2,00.0,38.7,31.7,24.4,0000.0,0017.74,0007.57,0006.27
2022-08-19 20:46:00,,0828.3,4.99,0.00,30.0,27.8,00.0,38.7,31.7,24.2,0000.0,0016.41,0007.55,0006.27
2022-08-19 20:47:00,,0828.3,4.99,0.00,29.9,27.8,00.0,38.7,31.6,23.8,0000.0,0015.96,0007.53,0006.27
2022-08-19 20:48:00,,0828.3,5.01,0.00,29.9,27.9,00.0,38.7,31.6,23.6,0000.0,0016.44,0007.58,0006.27
2022-08-19 20:49:00,,0828.3,4.99,0.00,29.9,28.1,00.0,38.7,31.6,23.6,0000.0,0016.43,0007.53,0006.27
2022-08-19 20:50:00,,0828.3,5.02,0.00,29.9,28.3,00.0,38.7,31.7,23.6,0000.0,0016.32,0007.49,0006.27
2022-08-19 20:51:00,,0828.4,5.00,0.00,29.9,28.5,00.0,38.7,31.8,23.9,0000.0,0016.86,0007.48,0006.26
2022-08-19 20:52:00,,0828.3,5.00,0.00,30.0,28.7,00.0,38.7,31.9,24.0,0000.0,0016.42,0007.45,0006.26
2022-08-19 20:53:00,,0828.3,5.00,0.00,30.0,28.8,00.0,38.7,32.0,23.9,0000.0,0016.49,0007.34,0006.24
2022-08-19 20:54:00,,0828.3,4.99,0.00,30.1,29.0,00.0,38.8,32.0,24.3,0000.0,0018.04,0007.25,0006.21
2022-08-19 20:55:00,,0828.1,5.00,0.00,30.1,28.9,00.0,38.8,32.0,24.5,0000.0,0019.36,0007.26,0006.21
2022-08-19 20:56:00,,0828.3,5.00,0.00,30.0,28.3,00.0,38.7,31.8,24.3,0000.0,0020.59,0007.27,0006.20
2022-08-19 20:57:00,,0828.4,4.99,0.00,30.0,27.8,00.0,38.7,31.7,24.9,0000.0,0020.88,0007.24,0006.19
2022-08-19 20:58:00,,0828.2,5.01,0.00,29.9,27.7,00.0,38.7,31.7,24.8,0000.0,0020.55,0007.25,0006.18
2022-08-19 20:59:00,,0828.1,5.00,0.00,29.9,27.8,00.0,38.7,31.6,24.7,0000.0,0020.03,0007.19,0006.18
